Terug naar catalogus

COSMOS 397 DEB

ActiefLEO
NORAD 5012·DEBRIS·🇷🇺 Russia

Gelanceerd Feb 25, 1971 vanaf Baikonur Cosmodrome

Loading…

Volgende Passages (komende 24 uur)

TLE

VersSource: Space-Track

Epoch: Sep 14, 2026, 12:47 UTC

1 05012U 71015F   26257.53302018  .00011319  00000-0  15273-2 0  9991
2 05012  65.7305  85.2284 0333170 157.9034 203.6823 14.47633582713414

Volg COSMOS 397 DEB in realtime met AllMySat

Download on the App Store